TimeEST,TemperatureF,Dew PointF,Humidity,Sea Level PressureIn,VisibilityMPH,Wind Direction,Wind SpeedMPH,Gust SpeedMPH,PrecipitationIn,Events,Conditions,WindDirDegrees,DateUTC
12:15 AM,35.6,35.6,100,30.14,10.0,Calm,Calm,-,N/A,,Clear,0,2013-01-21 05:15:00
12:35 AM,35.6,35.6,100,30.13,10.0,Calm,Calm,-,N/A,,Clear,0,2013-01-21 05:35:00
12:55 AM,35.6,35.6,100,30.12,10.0,NW,3.5,-,N/A,,Clear,310,2013-01-21 05:55:00
1:15 AM,35.6,35.6,100,30.12,10.0,Calm,Calm,-,N/A,,Clear,0,2013-01-21 06:15:00
1:35 AM,37.4,37.4,100,30.12,10.0,Calm,Calm,-,N/A,,Clear,0,2013-01-21 06:35:00
1:55 AM,35.6,35.6,100,30.12,10.0,Calm,Calm,-,N/A,,Clear,0,2013-01-21 06:55:00
2:15 AM,35.6,35.6,100,30.12,10.0,Calm,Calm,-,N/A,,Clear,0,2013-01-21 07:15:00
2:35 AM,35.6,35.6,100,30.12,10.0,Calm,Calm,-,N/A,,Clear,0,2013-01-21 07:35:00
2:55 AM,33.8,33.8,100,30.12,10.0,Calm,Calm,-,N/A,,Clear,0,2013-01-21 07:55:00
3:15 AM,35.6,35.6,100,30.12,10.0,Calm,Calm,-,N/A,,Clear,0,2013-01-21 08:15:00
3:35 AM,33.8,33.8,100,30.12,10.0,Calm,Calm,-,N/A,,Clear,0,2013-01-21 08:35:00
3:55 AM,33.8,33.8,100,30.12,10.0,Calm,Calm,-,N/A,,Clear,0,2013-01-21 08:55:00
4:15 AM,33.8,33.8,100,30.10,10.0,Calm,Calm,-,N/A,,Clear,0,2013-01-21 09:15:00
4:35 AM,33.8,33.8,100,30.10,10.0,Calm,Calm,-,N/A,,Clear,0,2013-01-21 09:35:00
4:55 AM,33.8,33.8,100,30.10,10.0,Calm,Calm,-,N/A,,Clear,0,2013-01-21 09:55:00
5:15 AM,33.8,33.8,100,30.10,10.0,Calm,Calm,-,N/A,,Clear,0,2013-01-21 10:15:00
5:35 AM,33.8,33.8,100,30.10,10.0,Calm,Calm,-,N/A,,Clear,0,2013-01-21 10:35:00
5:55 AM,32.0,32.0,100,30.10,10.0,Calm,Calm,-,N/A,,Clear,0,2013-01-21 10:55:00
6:15 AM,33.8,33.8,100,30.10,10.0,Calm,Calm,-,N/A,,Clear,0,2013-01-21 11:15:00
6:55 AM,32.0,32.0,100,30.11,10.0,Calm,Calm,-,N/A,,Clear,0,2013-01-21 11:55:00
7:15 AM,32.0,32.0,100,30.12,10.0,Calm,Calm,-,N/A,,Clear,0,2013-01-21 12:15:00
7:35 AM,32.0,32.0,100,30.12,10.0,Calm,Calm,-,N/A,,Clear,0,2013-01-21 12:35:00
7:55 AM,32.0,32.0,100,30.14,10.0,Calm,Calm,-,N/A,,Clear,0,2013-01-21 12:55:00
8:15 AM,32.0,32.0,100,30.14,10.0,Calm,Calm,-,N/A,,Clear,0,2013-01-21 13:15:00
8:35 AM,33.8,33.8,100,30.15,10.0,Calm,Calm,-,N/A,,Clear,0,2013-01-21 13:35:00
8:55 AM,37.4,37.4,100,30.15,10.0,Calm,Calm,-,N/A,,Clear,0,2013-01-21 13:55:00
9:15 AM,41.0,41.0,100,30.16,10.0,Calm,Calm,-,N/A,,Clear,0,2013-01-21 14:15:00
9:35 AM,44.6,42.8,93,30.16,10.0,Calm,Calm,-,N/A,,Clear,0,2013-01-21 14:35:00
9:55 AM,50.0,41.0,71,30.16,10.0,Calm,Calm,-,N/A,,Clear,0,2013-01-21 14:55:00
10:15 AM,51.8,37.4,58,30.16,10.0,Calm,Calm,-,N/A,,Clear,0,2013-01-21 15:15:00
10:35 AM,55.4,37.4,51,30.17,10.0,West,3.5,-,N/A,,Clear,270,2013-01-21 15:35:00
10:55 AM,55.4,37.4,51,30.17,10.0,WSW,3.5,-,N/A,,Clear,250,2013-01-21 15:55:00
11:15 AM,59.0,37.4,45,30.16,10.0,West,3.5,-,N/A,,Clear,280,2013-01-21 16:15:00
11:35 AM,60.8,35.6,39,30.15,10.0,NNW,6.9,-,N/A,,Clear,330,2013-01-21 16:35:00
11:55 AM,60.8,33.8,36,30.14,10.0,NNW,8.1,-,N/A,,Clear,330,2013-01-21 16:55:00
12:15 PM,62.6,32.0,32,30.13,10.0,WNW,9.2,-,N/A,,Clear,300,2013-01-21 17:15:00
12:35 PM,62.6,32.0,32,30.12,10.0,NW,9.2,-,N/A,,Clear,310,2013-01-21 17:35:00
12:55 PM,62.6,32.0,32,30.10,10.0,NNW,3.5,-,N/A,,Clear,340,2013-01-21 17:55:00
1:15 PM,62.6,32.0,32,30.09,10.0,NNW,6.9,-,N/A,,Clear,330,2013-01-21 18:15:00
1:35 PM,64.4,33.8,32,30.08,10.0,WNW,6.9,-,N/A,,Clear,290,2013-01-21 18:35:00
1:55 PM,62.6,33.8,34,30.07,10.0,NW,8.1,16.1,N/A,,Clear,320,2013-01-21 18:55:00
2:15 PM,64.4,32.0,30,30.07,10.0,WNW,9.2,-,N/A,,Clear,300,2013-01-21 19:15:00
2:35 PM,64.4,32.0,30,30.06,10.0,West,12.7,16.1,N/A,,Clear,270,2013-01-21 19:35:00
2:55 PM,64.4,32.0,30,30.06,10.0,NW,8.1,-,N/A,,Clear,310,2013-01-21 19:55:00
3:15 PM,64.4,32.0,30,30.06,10.0,NW,6.9,-,N/A,,Clear,320,2013-01-21 20:15:00
3:35 PM,64.4,32.0,30,30.06,10.0,WNW,9.2,12.7,N/A,,Clear,300,2013-01-21 20:35:00
3:55 PM,64.4,30.2,28,30.06,10.0,West,11.5,18.4,N/A,,Clear,280,2013-01-21 20:55:00
4:15 PM,64.4,32.0,30,30.06,10.0,WNW,10.4,16.1,N/A,,Clear,290,2013-01-21 21:15:00
4:35 PM,62.6,32.0,32,30.07,10.0,NW,8.1,-,N/A,,Clear,310,2013-01-21 21:35:00
4:55 PM,62.6,30.2,30,30.07,10.0,NW,8.1,-,N/A,,Clear,310,2013-01-21 21:55:00
5:15 PM,60.8,32.0,34,30.08,10.0,NW,6.9,-,N/A,,Clear,310,2013-01-21 22:15:00
5:35 PM,60.8,32.0,34,30.08,10.0,NW,4.6,-,N/A,,Clear,320,2013-01-21 22:35:00
5:55 PM,59.0,32.0,36,30.09,10.0,NNW,4.6,-,N/A,,Clear,330,2013-01-21 22:55:00
6:15 PM,55.4,33.8,44,30.10,10.0,NNW,4.6,-,N/A,,Clear,330,2013-01-21 23:15:00
6:35 PM,55.4,33.8,44,30.10,10.0,Calm,Calm,-,N/A,,Clear,0,2013-01-21 23:35:00
6:55 PM,53.6,33.8,47,30.11,10.0,NW,3.5,-,N/A,,Clear,320,2013-01-21 23:55:00
7:15 PM,51.8,33.8,50,30.11,10.0,NW,3.5,-,N/A,,Clear,320,2013-01-22 00:15:00
7:35 PM,51.8,33.8,50,30.12,10.0,NNW,4.6,-,N/A,,Clear,330,2013-01-22 00:35:00
7:55 PM,51.8,33.8,50,30.12,10.0,NW,5.8,-,N/A,,Clear,310,2013-01-22 00:55:00
8:15 PM,51.8,33.8,50,30.12,10.0,NNW,6.9,-,N/A,,Clear,330,2013-01-22 01:15:00
8:35 PM,51.8,33.8,50,30.13,10.0,NW,5.8,-,N/A,,Clear,320,2013-01-22 01:35:00
8:55 PM,51.8,32.0,47,30.13,10.0,NW,6.9,-,N/A,,Clear,320,2013-01-22 01:55:00
9:15 PM,51.8,32.0,47,30.14,10.0,NNW,5.8,-,N/A,,Clear,330,2013-01-22 02:15:00
9:35 PM,51.8,32.0,47,30.14,10.0,NW,6.9,-,N/A,,Clear,320,2013-01-22 02:35:00
9:55 PM,50.0,32.0,50,30.15,10.0,NNW,8.1,-,N/A,,Clear,330,2013-01-22 02:55:00
10:15 PM,50.0,32.0,50,30.15,10.0,NNW,5.8,-,N/A,,Clear,330,2013-01-22 03:15:00
10:35 PM,50.0,32.0,50,30.16,10.0,NW,5.8,-,N/A,,Clear,320,2013-01-22 03:35:00
10:55 PM,48.2,32.0,54,30.17,10.0,NW,5.8,-,N/A,,Clear,320,2013-01-22 03:55:00
11:15 PM,46.4,32.0,57,30.17,10.0,NW,6.9,-,N/A,,Clear,320,2013-01-22 04:15:00
11:35 PM,46.4,30.2,53,30.17,10.0,NW,8.1,-,N/A,,Clear,320,2013-01-22 04:35:00
11:55 PM,46.4,28.4,50,30.16,10.0,NW,6.9,-,N/A,,Clear,320,2013-01-22 04:55:00